Weather History for Fort Huachuca, AZ

Change the Weather History Date:

Monday, April 29, 2013

  Actual Average (KFHU) Record (KFHU)
Temperature  
Mean Temperature 72 °F -  
Max Temperature 84 °F 77 °F 91 °F (1992)
Min Temperature 61 °F 55 °F 33 °F (1984)
Cooling Degree Days 8    
Growing Degree Days 22 (Base 50)    
Moisture  
Dew Point 7 °F    
Average Humidity 8    
Maximum Humidity 15    
Minimum Humidity 5    
Precipitation  
Precipitation 0.00 in - - ()
Sea Level Pressure  
Sea Level Pressure 29.75 in    
Wind  
Wind Speed 7 mph (West)    
Max Wind Speed 16 mph    
Max Gust Speed 50 mph    
Visibility 10 miles    
Events      
Averages and records for this station are not official NWS values.
T = Trace of Precipitation, MM = Missing Value Source: NWS Daily Summary

Daily Weather History Graph

Daily Weather History Graph

Search for Another Location

Airport:

Trip Planner

Search our weather history database for the weather conditions in past years. The results will help you decide how hot, cold, wet, or windy it might be!

Date:

Astronomy

Apr. 29, 2013 Rise Set
Actual Time 5:38 AM MST 7:00 PM MST
Civil Twilight 5:12 AM MST 7:26 PM MST
Nautical Twilight 4:41 AM MST 7:57 PM MST
Astronomical Twilight 4:09 AM MST 8:29 PM MST
Moon 11:23 PM MST (4/29) 9:08 AM MST (4/29)
Length of Visible Light 14h 13m
Length of Day
13h 22m
Waning Gibbous, 79% of the Moon is Illuminated
Apr 29
Waning Gibbous
May 2
Last Quarter
May 9
New
May 17
First Quarter
May 24
Full

Hourly Weather History & Observations

Time (MST) Temp. Dew Point Humidity Pressure Visibility Wind Dir Wind Speed Gust Speed Precip Events Conditions
12:56 AM 62.1 °F 9.0 °F 12% 29.75 in 10.0 mi SW 9.2 mph 27.6 mph N/A   Clear
1:56 AM 64.4 °F 8.6 °F 11% 30.00 in 10.0 mi WSW 6.9 mph - N/A   Clear
2:56 AM 64.0 °F 7.0 °F 11% 29.73 in 10.0 mi SSW 6.9 mph - N/A   Clear
3:56 AM 64.9 °F 6.1 °F 10% 29.72 in 10.0 mi Variable 4.6 mph - N/A   Clear
4:56 AM 62.1 °F 7.0 °F 11% 29.73 in 10.0 mi SW 4.6 mph - N/A   Clear
5:56 AM 61.0 °F 8.1 °F 12% 29.75 in 10.0 mi SSW 5.8 mph - N/A   Clear
6:56 AM 66.9 °F 9.0 °F 10% 29.76 in 10.0 mi WSW 5.8 mph - N/A   Partly Cloudy
7:56 AM 71.1 °F 6.1 °F 8% 29.77 in 10.0 mi WSW 4.6 mph - N/A   Clear
8:11 AM 73.4 °F 6.8 °F 8% 30.03 in 10.0 mi West 4.6 mph - N/A   Partly Cloudy
8:56 AM 75.0 °F 5.0 °F 7% 29.76 in 10.0 mi Calm Calm - N/A   Clear
9:56 AM 79.0 °F 6.1 °F 6% 29.75 in 10.0 mi Variable 3.5 mph - N/A   Clear
10:56 AM 82.9 °F 5.0 °F 5% 29.72 in 10.0 mi Variable 6.9 mph - N/A   Clear
11:56 AM 84.0 °F 3.9 °F 5% 29.70 in 10.0 mi NNW 9.2 mph 19.6 mph N/A   Clear
12:47 PM 84.2 °F 5.0 °F 5% 29.96 in 10.0 mi NW 13.8 mph 27.6 mph N/A   Clear
12:56 PM 82.9 °F 3.9 °F 5% 29.69 in 10.0 mi West 10.4 mph - N/A   Clear
1:37 PM 84.2 °F 5.0 °F 5% 29.94 in 10.0 mi WNW 16.1 mph 49.5 mph N/A   Squalls
2:56 PM 84.9 °F 5.0 °F 5% 29.64 in 10.0 mi Variable 3.5 mph 23.0 mph N/A   Clear
3:56 PM 84.9 °F 3.9 °F 5% 29.62 in 10.0 mi West 11.5 mph 21.9 mph N/A   Clear
4:56 PM 84.0 °F 6.1 °F 5% 29.62 in 10.0 mi WNW 11.5 mph 23.0 mph N/A   Clear
5:56 PM 82.0 °F 5.0 °F 5% 29.62 in 10.0 mi NW 5.8 mph - N/A   Clear
6:56 PM 77.0 °F 6.1 °F 7% 29.63 in 10.0 mi WNW 9.2 mph - N/A   Clear
8:56 PM 66.9 °F 8.1 °F 10% 29.67 in 10.0 mi West 8.1 mph - N/A   Clear
9:56 PM 64.9 °F 9.0 °F 11% 29.68 in 10.0 mi WSW 11.5 mph - N/A   Clear
11:56 PM 66.0 °F 17.1 °F 15% 29.68 in 10.0 mi WSW 9.2 mph - N/A   Clear